When you browse on this site, cookies collect data to enhance your experience and personalize the content and advertising you see.
Visit our Privacy Policy to learn more. By continuing to use the site, you agree to this use of cookies and data.
  • en Suisse
  • Liste des pays
  • À 7 jours
  • Température de l'eau
  • Carte météo
  • Widgets météo
  • user-avatar
    Se connecter

    Météo par heure à Peskovo

    Ce jour, 6 Décembre, Vendredi

    Heure Température Précipitation Vent Pression Humidité
    00:00 +1°C° 0 mm 5 m/s 748 mmHg 87%
    01:00 +1°C° 0 mm 5 m/s 748 mmHg 87%
    02:00 +1°C° 0 mm 5 m/s 748 mmHg 87%
    03:00 +1°C° 0 mm 6 m/s 747 mmHg 87%
    04:00 +1°C° 0 mm 6 m/s 747 mmHg 86%
    05:00 +1°C° 0 mm 6 m/s 746 mmHg 86%
    06:00 -1°C° 0 mm 6 m/s 746 mmHg 85%
    07:00 -1°C° 0 mm 6 m/s 746 mmHg 85%
    08:00 -1°C° 0 mm 7 m/s 746 mmHg 84%
    09:00 -1°C° 0 mm 7 m/s 745 mmHg 84%
    10:00 -2°C° 0 mm 7 m/s 745 mmHg 84%
    11:00 -2°C° 0 mm 7 m/s 744 mmHg 84%
    12:00 -2°C° 0.5 mm 7 m/s 744 mmHg 85%
    13:00 -2°C° 0.5 mm 7 m/s 744 mmHg 87%
    14:00 -2°C° 0.5 mm 7 m/s 743 mmHg 89%
    15:00 -2°C° 0.1 mm 7 m/s 743 mmHg 87%
    16:00 -2°C° 0.1 mm 7 m/s 743 mmHg 86%
    17:00 -1°C° 0.1 mm 7 m/s 742 mmHg 85%
    18:00 -1°C° 0 mm 7 m/s 743 mmHg 85%
    19:00 0°C° 0 mm 7 m/s 743 mmHg 85%
    20:00 0°C° 0 mm 7 m/s 743 mmHg 84%
    21:00 +1°C° 0 mm 6 m/s 743 mmHg 86%
    22:00 +1°C° 0 mm 6 m/s 743 mmHg 87%
    23:00 +1°C° 0 mm 6 m/s 743 mmHg 89%

    Demain, 7 Décembre, Samedi

    Heure Température Précipitation Vent Pression Humidité
    00:00 +1°C° 0 mm 6 m/s 743 mmHg 89%
    01:00 +2°C° 0 mm 6 m/s 744 mmHg 89%
    02:00 +2°C° 0 mm 6 m/s 744 mmHg 89%
    03:00 +2°C° 0 mm 6 m/s 743 mmHg 89%
    04:00 +2°C° 0 mm 5 m/s 743 mmHg 89%
    05:00 +2°C° 0 mm 5 m/s 743 mmHg 90%
    06:00 +2°C° 0 mm 5 m/s 743 mmHg 90%
    07:00 +1°C° 0 mm 5 m/s 743 mmHg 91%
    08:00 +1°C° 0 mm 5 m/s 743 mmHg 91%
    09:00 +1°C° 0 mm 5 m/s 742 mmHg 91%
    10:00 +1°C° 0 mm 5 m/s 742 mmHg 90%
    11:00 0°C° 0 mm 5 m/s 742 mmHg 90%
    12:00 0°C° 0.3 mm 5 m/s 741 mmHg 90%
    13:00 -1°C° 0.3 mm 6 m/s 741 mmHg 90%
    14:00 -1°C° 0.3 mm 6 m/s 741 mmHg 90%
    15:00 -1°C° 0.1 mm 6 m/s 740 mmHg 89%
    16:00 -1°C° 0.1 mm 6 m/s 740 mmHg 88%
    17:00 -1°C° 0.1 mm 6 m/s 739 mmHg 86%
    18:00 +1°C° 0 mm 6 m/s 739 mmHg 87%
    19:00 +1°C° 0 mm 6 m/s 739 mmHg 87%
    20:00 +1°C° 0 mm 6 m/s 739 mmHg 88%
    21:00 +1°C° 0 mm 5 m/s 739 mmHg 89%
    22:00 +1°C° 0 mm 5 m/s 738 mmHg 89%
    23:00 +1°C° 0 mm 5 m/s 738 mmHg 90%

    Après-demain, 8 Décembre, Dimanche

    Heure Température Précipitation Vent Pression Humidité
    00:00 +2°C° 0 mm 5 m/s 738 mmHg 90%
    01:00 +2°C° 0 mm 5 m/s 738 mmHg 90%
    02:00 +3°C° 0 mm 4 m/s 737 mmHg 90%
    03:00 +3°C° 0.1 mm 4 m/s 737 mmHg 89%
    04:00 +1°C° 0.1 mm 4 m/s 737 mmHg 88%
    05:00 +1°C° 0.1 mm 4 m/s 737 mmHg 86%
    06:00 +1°C° 0 mm 4 m/s 737 mmHg 87%
    07:00 0°C° 0 mm 5 m/s 738 mmHg 88%
    08:00 0°C° 0 mm 5 m/s 738 mmHg 88%
    09:00 0°C° 0.1 mm 5 m/s 739 mmHg 88%
    10:00 0°C° 0.1 mm 4 m/s 740 mmHg 87%
    11:00 0°C° 0.1 mm 4 m/s 740 mmHg 86%
    12:00 0°C° 0 mm 4 m/s 741 mmHg 85%
    13:00 +1°C° 0 mm 3 m/s 741 mmHg 83%
    14:00 +1°C° 0 mm 3 m/s 742 mmHg 82%
    15:00 +1°C° 0 mm 3 m/s 742 mmHg 84%
    16:00 +1°C° 0 mm 3 m/s 742 mmHg 86%
    17:00 0°C° 0 mm 4 m/s 742 mmHg 88%
    18:00 0°C° 0 mm 4 m/s 742 mmHg 88%
    19:00 -1°C° 0 mm 4 m/s 742 mmHg 88%
    20:00 -1°C° 0 mm 4 m/s 741 mmHg 88%
    21:00 0°C° 0.1 mm 5 m/s 741 mmHg 91%
    22:00 0°C° 0.1 mm 5 m/s 740 mmHg 93%
    23:00 -1°C° 0.1 mm 6 m/s 739 mmHg 96%

    9 Décembre, Lundi

    Heure Température Précipitation Vent Pression Humidité
    00:00 +1°C° 0.2 mm 6 m/s 738 mmHg 94%
    01:00 +2°C° 0.2 mm 6 m/s 737 mmHg 92%
    02:00 +3°C° 0.2 mm 6 m/s 737 mmHg 90%
    03:00 +3°C° 0.1 mm 6 m/s 736 mmHg 90%
    04:00 +3°C° 0.1 mm 6 m/s 736 mmHg 89%
    05:00 +3°C° 0.1 mm 5 m/s 736 mmHg 89%
    06:00 +3°C° 0.3 mm 5 m/s 735 mmHg 90%
    07:00 +3°C° 0.3 mm 5 m/s 735 mmHg 90%
    08:00 +3°C° 0.3 mm 5 m/s 735 mmHg 91%
    09:00 +3°C° 0.7 mm 5 m/s 735 mmHg 91%
    10:00 +4°C° 0.7 mm 4 m/s 735 mmHg 91%
    11:00 +4°C° 0.7 mm 4 m/s 735 mmHg 92%
    12:00 +4°C° 0.2 mm 4 m/s 735 mmHg 90%
    13:00 +4°C° 0.2 mm 4 m/s 735 mmHg 88%
    14:00 +4°C° 0.2 mm 4 m/s 735 mmHg 86%
    15:00 +4°C° 0 mm 4 m/s 735 mmHg 86%
    16:00 +4°C° 0 mm 4 m/s 735 mmHg 87%
    17:00 +3°C° 0 mm 4 m/s 735 mmHg 88%
    18:00 +3°C° 0 mm 4 m/s 736 mmHg 87%
    19:00 +2°C° 0 mm 5 m/s 736 mmHg 86%
    20:00 +2°C° 0 mm 5 m/s 736 mmHg 86%
    21:00 +2°C° 0 mm 5 m/s 737 mmHg 86%
    22:00 +2°C° 0 mm 5 m/s 737 mmHg 86%
    23:00 +2°C° 0 mm 5 m/s 737 mmHg 86%

    10 Décembre, Mardi

    Heure Température Précipitation Vent Pression Humidité
    00:00 +1°C° 0 mm 4 m/s 737 mmHg 87%
    01:00 +1°C° 0 mm 4 m/s 738 mmHg 89%
    02:00 +1°C° 0 mm 3 m/s 738 mmHg 90%
    03:00 +1°C° 0 mm 3 m/s 738 mmHg 90%
    04:00 +1°C° 0 mm 3 m/s 738 mmHg 90%
    05:00 +1°C° 0 mm 3 m/s 738 mmHg 89%
    06:00 +1°C° 0 mm 3 m/s 739 mmHg 90%
    07:00 +1°C° 0 mm 3 m/s 739 mmHg 91%
    08:00 +1°C° 0 mm 3 m/s 739 mmHg 92%
    09:00 +1°C° 0.1 mm 3 m/s 739 mmHg 93%
    10:00 +1°C° 0.1 mm 3 m/s 740 mmHg 94%
    11:00 +2°C° 0.1 mm 3 m/s 740 mmHg 94%
    12:00 +1°C° 0.8 mm 3 m/s 740 mmHg 95%
    13:00 -1°C° 0.8 mm 4 m/s 741 mmHg 95%
    14:00 -1°C° 0.8 mm 4 m/s 741 mmHg 96%
    15:00 -2°C° 0.6 mm 5 m/s 742 mmHg 93%
    16:00 -4°C° 0.6 mm 5 m/s 743 mmHg 90%
    17:00 -5°C° 0.6 mm 5 m/s 743 mmHg 87%
    18:00 -5°C° 0.1 mm 5 m/s 744 mmHg 81%
    19:00 -4°C° 0.1 mm 4 m/s 745 mmHg 75%
    20:00 -4°C° 0.1 mm 3 m/s 746 mmHg 69%
    21:00 -5°C° 0 mm 3 m/s 747 mmHg 71%
    22:00 -5°C° 0 mm 3 m/s 748 mmHg 73%
    23:00 -5°C° 0 mm 3 m/s 749 mmHg 74%

    11 Décembre, Mercredi

    Heure Température Précipitation Vent Pression Humidité
    00:00 -5°C° 0 mm 2 m/s 749 mmHg 76%
    01:00 -5°C° 0 mm 2 m/s 749 mmHg 78%
    02:00 -3°C° 0 mm 1 m/s 749 mmHg 81%
    03:00 -3°C° 0 mm 1 m/s 749 mmHg 81%
    04:00 -3°C° 0 mm 1 m/s 750 mmHg 82%
    05:00 -3°C° 0 mm 1 m/s 750 mmHg 82%
    06:00 -5°C° 0 mm 2 m/s 749 mmHg 81%
    07:00 -5°C° 0 mm 2 m/s 749 mmHg 80%
    08:00 -5°C° 0 mm 3 m/s 749 mmHg 79%
    09:00 -5°C° 0 mm 3 m/s 749 mmHg 74%
    10:00 -5°C° 0 mm 4 m/s 748 mmHg 70%
    11:00 -5°C° 0 mm 5 m/s 748 mmHg 66%
    12:00 -5°C° 0 mm 6 m/s 747 mmHg 63%
    13:00 -5°C° 0 mm 6 m/s 746 mmHg 60%
    14:00 -4°C° 0 mm 7 m/s 745 mmHg 58%
    15:00 -6°C° 0.4 mm 7 m/s 744 mmHg 68%
    16:00 -6°C° 0.4 mm 8 m/s 744 mmHg 78%
    17:00 -7°C° 0.4 mm 8 m/s 743 mmHg 89%
    18:00 -6°C° 0.1 mm 7 m/s 743 mmHg 87%
    19:00 -4°C° 0.1 mm 6 m/s 743 mmHg 86%
    20:00 -4°C° 0.1 mm 6 m/s 742 mmHg 84%
    21:00 -2°C° 0 mm 5 m/s 742 mmHg 87%
    22:00 -2°C° 0 mm 5 m/s 742 mmHg 90%
    23:00 -1°C° 0 mm 5 m/s 742 mmHg 93%
    Voir plus